GFSMW_500_rhum_039.txt.gz
RH
33 27 24 21 20 18 18 18 15 13 15 15 12 10 9 12 21 19 12 19 24 25 20 44 42 38 42 39 39 36 48 43 44 32 27 24 22 24 38 50 56 65 87
33 29 24 21 23 23 22 21 20 17 15 15 13 10 9 10 11 10 9 8 10 13 18 21 30 35 43 46 48 55 65 76 73 67 62 42 39 60 77 61 61 64 68
31 28 25 23 24 23 21 20 19 18 15 13 12 10 9 9 9 10 10 10 8 6 7 10 19 28 33 34 52 59 65 66 65 58 66 73 68 70 78 78 83 87 91
33 29 25 26 25 22 20 19 15 12 11 11 10 10 9 10 9 8 8 9 13 15 15 14 13 14 21 32 31 28 36 46 54 64 68 77 80 78 72 87 88 92 90
36 32 29 26 23 20 18 14 13 17 18 14 13 12 10 9 8 8 9 14 16 15 14 13 12 10 8 9 15 24 28 37 44 44 48 55 66 73 75 83 100 98 93
40 33 28 19 17 18 20 24 27 25 20 12 10 9 8 8 9 12 15 17 16 14 11 9 9 16 15 13 14 17 19 25 33 40 52 58 70 69 74 67 80 96 99
46 33 31 29 35 39 36 33 31 27 18 10 9 8 8 9 14 18 18 14 10 8 9 11 12 11 10 9 13 17 18 22 24 28 34 48 62 100 80 67 59 65 82
65 64 62 59 54 49 45 37 30 17 10 9 9 8 10 16 20 15 10 9 9 8 7 10 9 11 13 15 25 26 20 17 19 24 32 44 75 97 85 93 84 79 70
60 59 48 29 22 16 13 12 11 9 9 9 9 13 19 20 12 8 10 9 6 7 10 8 10 17 23 20 15 14 11 9 8 11 22 46 69 77 94 100 100 94 79
20 19 17 16 14 12 11 11 10 9 9 11 18 20 17 10 10 9 7 8 8 8 8 15 19 22 16 14 16 14 10 10 16 18 24 54 83 100 100 100 100 99 90
31 23 18 13 12 12 11 11 10 11 16 22 18 11 10 10 8 7 8 8 9 11 14 16 16 16 16 19 15 12 10 18 22 34 78 91 71 87 97 100 100 99 92
21 18 14 13 13 12 11 12 15 21 21 13 10 11 9 8 10 10 8 12 15 13 15 15 18 21 21 19 15 14 15 23 27 40 76 81 70 100 100 100 93 100 100
20 17 15 15 15 14 16 20 21 16 10 13 11 10 12 11 11 8 8 17 15 16 19 18 22 25 24 20 18 16 16 23 31 37 61 70 74 85 100 100 100 100 100
27 21 19 19 21 21 20 16 12 14 14 14 13 14 15 15 14 13 15 18 19 18 21 22 26 28 27 24 21 17 19 21 39 41 54 74 86 83 100 96 99 100 100
27 25 24 20 16 13 13 15 15 15 14 14 13 15 18 18 17 18 24 21 18 18 23 26 29 32 33 32 26 24 24 26 35 51 64 62 69 80 90 90 93 96 94
25 20 17 17 20 20 18 16 12 12 12 13 13 13 22 22 23 28 25 20 17 16 16 18 27 31 36 36 33 30 30 30 35 50 57 75 84 100 80 91 90 82 78
33 30 28 28 31 25 20 14 14 12 11 13 18 25 24 27 28 26 21 17 16 17 21 22 22 34 36 34 35 36 39 38 40 50 66 88 94 90 88 81 75 90 90
41 41 42 36 28 22 19 15 12 11 12 15 22 32 35 33 30 26 24 23 23 24 23 22 26 26 33 36 34 42 47 49 51 56 69 63 68 79 84 63 67 43 58
48 48 40 34 28 23 17 13 14 15 16 18 33 43 42 39 36 32 30 28 25 23 24 25 24 26 26 26 27 31 34 41 34 52 50 56 56 36 17 20 18 17 18
52 47 44 38 28 21 17 20 20 20 22 27 36 36 41 44 39 37 33 28 26 26 25 26 27 26 28 30 28 26 26 26 26 26 25 24 20 17 18 18 19 20 23
50 45 40 35 28 26 26 28 26 26 29 33 41 41 42 47 46 43 37 35 31 28 26 24 25 26 26 26 27 29 31 31 32 33 33 35 36 36 37 37 40 42 40
48 42 38 34 29 30 30 34 33 33 35 38 43 51 53 53 54 51 46 41 39 33 29 27 27 27 28 28 31 33 36 38 38 39 41 43 43 44 46 45 44 45 44
63 42 41 39 34 33 34 36 39 38 40 45 46 54 60 60 63 61 58 50 44 39 35 33 33 32 32 33 35 38 39 41 44 45 46 48 50 50 50 51 52 53 54
76 49 44 48 44 38 36 40 43 44 47 51 51 55 64 64 63 68 66 60 53 46 40 39 37 36 37 40 43 46 46 47 47 45 43 42 45 48 50 52 53 54 51
85 60 45 50 49 40 41 45 45 41 48 56 59 61 67 67 70 71 77 70 63 56 51 45 44 46 47 50 54 58 60 56 52 48 43 42 42 42 43 44 48 50 48
99 81 52 48 49 48 42 42 41 50 54 60 68 68 70 79 81 77 82 86 78 71 67 64 62 63 62 65 67 71 70 60 52 47 44 43 43 43 44 46 51 46 20

GFSMW_500_rhum_045.txt.gz
RH
81 76 71 60 53 42 35 31 28 24 21 18 16 14 14 14 14 14 14 13 14 22 39 40 22 17 11 9 11 8 7 11 22 34 36 31 47 58 70 68 75 82 71
78 67 66 65 60 47 35 30 26 24 22 20 17 15 13 14 13 13 13 14 14 14 10 12 11 11 10 9 8 8 11 14 15 28 27 33 42 44 45 46 47 59 66
81 64 53 52 54 51 39 30 26 25 23 21 19 18 18 17 17 16 15 14 13 12 10 12 15 14 11 8 8 12 15 16 15 12 10 11 15 24 28 33 43 44 42
64 67 53 44 43 43 41 36 30 26 23 21 20 19 17 17 17 17 17 15 12 11 17 17 15 12 9 8 12 17 18 14 10 9 12 13 10 8 15 18 18 22 35
66 60 56 51 45 42 41 39 38 36 30 25 21 19 17 16 16 16 14 11 14 16 15 13 11 9 8 10 14 19 13 10 10 10 11 10 12 15 17 11 10 12 13
67 66 61 50 43 40 40 40 37 33 29 28 27 23 22 19 17 14 19 26 23 17 14 12 9 9 13 16 18 15 12 9 7 9 9 11 16 14 11 12 12 11 11
66 69 73 63 52 43 38 35 33 31 28 26 24 23 20 20 20 26 29 26 24 16 12 9 11 17 19 16 13 10 8 8 9 10 12 11 13 14 15 14 13 10 8
73 75 75 68 56 47 42 37 34 32 30 26 26 21 22 29 37 40 36 34 23 12 9 10 16 18 15 11 10 8 9 8 12 12 14 16 19 18 16 13 10 8 9
76 81 78 80 69 57 50 46 39 32 25 19 23 33 48 43 39 35 27 22 13 9 10 17 18 13 11 9 9 10 13 14 14 15 18 22 21 20 14 10 11 15 12
81 80 81 80 79 64 48 42 37 32 29 28 31 41 39 39 32 25 14 10 10 12 18 18 12 11 8 10 11 14 14 16 18 19 24 25 25 21 15 11 15 17 17
75 68 69 76 77 77 58 50 46 42 42 44 44 44 41 31 15 11 10 11 16 18 15 11 9 9 12 9 13 15 14 15 20 19 23 29 28 21 17 15 14 15 23
56 66 34 38 36 53 74 68 64 62 58 53 49 33 15 11 10 10 13 18 16 14 10 10 12 11 12 13 15 16 17 18 15 15 22 32 29 23 18 19 16 15 25
60 75 81 51 41 30 27 33 32 24 21 19 16 13 11 10 12 19 18 15 11 9 12 15 14 13 16 18 20 17 15 12 14 17 25 32 30 29 24 23 22 22 33
87 76 94 86 70 55 41 37 34 28 20 16 13 12 14 18 19 15 13 11 11 14 15 17 17 19 22 20 18 16 14 16 17 20 28 31 32 29 31 26 30 35 42
80 72 75 80 82 62 43 33 26 20 18 15 16 18 18 16 14 14 11 12 12 12 14 19 23 25 22 20 18 17 18 18 18 24 30 29 34 34 34 33 35 36 40
95 88 78 66 58 69 63 39 27 22 20 19 18 16 14 12 12 12 12 11 14 21 25 26 25 23 22 21 20 19 19 20 22 20 22 26 25 23 21 23 22 23 20
90 96 77 79 69 49 39 35 26 26 24 20 17 13 11 11 11 11 13 19 26 29 31 30 28 25 23 21 22 22 23 23 22 21 19 16 15 15 17 19 21 23 26
58 50 45 58 59 70 52 38 39 33 26 21 16 13 11 13 14 14 15 15 18 27 30 30 31 29 24 22 24 24 25 26 23 22 22 21 20 22 24 27 28 29 31
48 45 64 73 64 61 62 56 42 34 28 22 18 16 16 16 17 18 17 21 25 29 32 37 38 33 25 25 24 25 26 23 23 24 24 25 27 30 31 32 32 31 30
52 82 86 74 66 67 63 50 46 40 32 26 21 20 21 22 22 21 20 20 24 39 45 47 44 39 31 29 26 26 26 27 28 29 30 34 37 39 39 38 36 34 32
99 99 95 82 73 68 62 57 54 43 32 27 25 28 29 28 28 27 25 23 31 48 52 52 52 48 40 37 35 33 33 34 33 36 44 50 54 54 48 43 40 36 33
96 99 97 98 95 74 67 60 54 46 36 31 30 33 36 35 36 37 37 33 37 49 48 53 58 57 51 45 40 39 38 38 42 49 55 63 64 62 54 47 41 36 34
98 95 96 87 73 65 61 61 56 50 44 39 39 41 42 42 43 43 42 43 47 51 58 63 67 70 64 58 55 53 52 53 57 69 71 66 62 60 52 42 39 37 35
94 99 100 99 88 64 54 55 58 58 50 45 42 43 48 49 50 46 48 51 53 55 62 69 75 80 82 79 78 76 77 80 80 78 76 67 62 56 47 44 43 41 39
100 100 100 99 99 99 66 51 55 58 61 55 49 47 50 49 52 51 54 61 62 57 67 74 80 89 91 93 92 88 82 78 77 80 78 67 60 52 50 51 50 51 49
55 73 87 92 96 100 98 66 59 64 65 60 61 61 58 51 54 58 61 70 73 66 68 77 75 82 86 86 89 92 89 89 87 84 84 74 64 60 60 59 58 60 58

GFSMW_500_rhum_048.txt.gz
RH
88 85 92 90 63 58 55 51 48 46 43 39 33 27 21 18 16 14 13 12 13 12 13 14 14 13 13 11 12 10 10 11 10 8 10 13 16 16 14 13 23 36 32
84 77 81 85 91 70 56 51 46 42 39 36 30 24 20 19 17 16 16 16 15 15 15 14 17 16 13 11 12 15 15 11 9 9 12 14 16 12 10 11 14 14 11
89 86 77 78 77 81 83 69 57 46 40 35 30 26 22 20 18 17 16 16 15 15 15 15 14 12 10 20 20 19 15 10 9 15 17 17 14 12 11 10 10 12 16
83 88 88 83 78 74 77 77 66 57 45 37 32 30 26 23 20 20 19 18 17 17 17 15 13 11 20 23 20 15 10 9 13 19 12 10 11 7 5 7 10 12 12
100 100 100 98 90 74 65 59 57 57 54 42 33 28 26 24 23 22 20 19 18 18 17 13 14 21 21 16 13 11 9 12 18 14 12 10 8 9 9 9 10 13 16
92 94 85 80 83 70 56 48 45 44 43 40 38 36 34 29 26 24 22 21 20 18 14 22 23 22 18 16 14 9 10 18 15 12 9 7 8 10 12 12 15 15 16
80 84 80 75 69 63 61 58 53 47 43 43 42 40 36 32 31 31 26 22 17 18 26 32 32 28 21 15 9 11 18 14 12 8 7 8 10 11 14 16 16 13 18
86 82 75 68 68 67 63 59 53 47 43 40 39 37 34 30 28 26 31 21 26 38 39 32 28 23 13 9 14 18 13 11 9 9 11 11 15 16 17 18 18 21 20
97 98 84 80 72 70 68 68 64 57 51 42 37 34 33 31 28 24 27 42 38 36 31 28 23 12 10 16 17 14 10 10 10 13 15 14 16 19 20 22 26 24 20
84 79 90 86 81 79 74 71 66 59 52 46 44 41 35 28 22 28 32 34 33 33 25 17 10 13 17 16 12 10 10 12 12 15 16 17 20 18 20 27 30 26 22
79 71 61 67 74 76 78 78 74 68 63 55 50 41 36 32 28 32 36 38 38 20 11 11 15 17 13 11 11 11 11 12 14 17 18 18 16 17 20 30 30 29 24
67 79 70 65 78 80 77 74 78 75 72 55 47 41 39 40 41 40 45 37 14 11 11 16 16 12 11 15 16 15 15 18 21 20 17 15 15 18 24 29 32 29 27
68 88 72 61 74 69 49 53 62 71 76 67 56 53 53 53 52 35 17 12 11 14 17 14 12 12 14 16 18 18 20 22 21 18 16 18 19 20 27 33 35 33 25
63 65 82 83 64 76 68 44 34 30 39 55 64 59 43 26 20 17 12 13 16 16 14 13 11 13 14 16 19 22 23 21 19 19 19 18 18 22 25 32 32 27 14
76 79 76 92 79 72 70 61 61 52 38 34 32 31 28 21 14 14 16 17 16 16 13 12 13 13 15 21 24 24 22 20 19 19 19 20 21 23 22 18 15 14 16
83 82 84 88 78 73 82 84 66 64 53 40 31 25 19 16 18 18 17 16 16 14 12 12 16 20 25 26 27 26 23 20 19 20 21 22 23 19 16 18 20 21 23
90 89 95 95 86 74 80 87 81 79 71 73 48 23 20 20 19 17 14 13 14 14 14 14 18 23 25 28 28 25 21 20 21 21 23 24 23 22 21 22 26 28 28
94 97 100 100 100 90 81 87 76 70 65 73 51 36 25 20 16 14 16 15 17 15 17 17 18 22 30 32 31 27 23 23 22 22 24 24 25 25 27 30 32 33 34
92 98 73 66 71 73 63 84 88 53 53 43 35 30 24 21 21 20 18 17 21 20 22 17 17 25 35 40 38 33 28 26 25 26 28 28 29 33 37 44 49 48 42
94 73 66 53 52 83 88 96 88 94 95 76 43 35 32 26 25 23 23 24 23 22 21 20 26 31 39 46 44 40 36 35 34 33 32 32 36 45 52 56 57 56 50
92 81 67 59 95 95 86 84 87 72 68 73 51 43 36 28 27 29 28 30 31 30 30 30 31 33 41 48 53 52 45 38 36 37 38 42 47 50 64 62 57 56 52
81 97 83 100 98 94 96 96 82 73 71 62 52 49 38 32 32 33 36 37 38 40 42 43 39 39 46 54 60 62 60 55 52 51 54 58 63 71 70 64 58 56 48
50 64 88 100 100 98 99 94 93 94 83 66 56 49 45 42 37 40 42 44 44 49 52 52 48 44 56 61 63 68 74 76 78 80 81 81 80 79 78 70 61 54 51
100 100 100 99 97 97 97 95 93 95 94 71 58 54 51 47 45 47 48 54 53 58 60 61 59 52 59 69 64 68 78 88 91 91 92 88 84 83 85 80 68 61 60
100 100 100 100 98 100 100 100 87 71 73 68 62 58 55 51 48 50 52 55 56 59 63 69 69 65 63 68 64 64 68 67 71 79 88 88 93 99 97 92 83 74 73
76 93 100 99 98 99 96 100 100 98 72 66 67 66 63 62 58 61 63 58 60 66 67 74 79 76 68 75 74 71 68 68 72 76 85 93 98 100 100 100 94 87 83

GFSMW_500_rhum_054.txt.gz
RH
91 87 60 54 50 51 71 85 90 95 95 68 62 55 60 64 67 64 58 50 43 37 33 24 20 18 16 14 14 15 13 14 15 15 13 15 20 20 17 13 13 14 14
93 96 90 80 68 66 68 69 73 88 87 90 77 67 66 67 67 63 54 46 42 37 31 25 21 19 17 16 18 19 15 15 16 14 15 24 22 18 13 14 14 15 14
94 96 97 92 85 84 81 94 87 79 84 86 83 88 81 69 65 60 52 46 41 36 31 26 21 27 31 19 20 18 16 18 17 15 24 28 24 20 14 15 14 13 10
87 88 93 96 95 97 97 100 97 96 93 98 96 93 80 67 59 54 48 44 40 34 30 25 38 44 30 22 21 20 22 24 17 24 30 28 24 17 13 14 14 11 9
91 84 96 98 95 94 95 98 90 94 96 93 96 96 90 78 63 53 46 42 40 38 34 49 51 29 26 26 25 27 23 18 27 33 29 25 17 12 16 16 13 10 12
93 95 99 94 86 89 97 97 97 97 96 97 95 90 85 93 97 82 66 60 42 44 62 74 38 35 31 29 28 24 26 29 35 31 28 21 12 16 16 13 10 11 15
81 90 90 94 93 95 95 96 96 93 86 84 87 91 93 91 87 89 90 86 73 71 54 39 38 39 36 30 24 30 36 34 32 27 20 10 15 16 13 9 10 13 16
92 96 99 100 100 100 93 96 91 90 90 88 88 88 85 81 72 64 57 51 46 43 42 44 44 38 31 28 36 38 37 30 32 18 10 16 16 12 10 10 10 11 15
49 82 96 97 97 99 98 99 89 80 80 86 88 87 86 79 69 60 54 50 49 47 45 40 36 32 28 37 35 32 28 37 18 12 16 15 12 14 14 13 15 16 18
62 58 59 81 94 95 95 97 97 95 88 81 73 69 65 64 62 60 57 52 48 46 43 40 37 30 29 30 27 30 40 19 12 16 15 11 13 15 16 17 19 21 21
71 80 69 67 94 94 90 88 96 96 92 83 77 72 67 65 63 62 61 60 58 54 47 45 45 40 33 34 41 45 20 12 16 15 11 13 15 17 18 21 21 20 18
31 36 50 64 67 74 90 98 95 92 96 87 76 72 70 64 61 63 63 60 58 54 52 52 45 38 43 45 48 16 13 16 15 12 11 12 14 19 22 23 22 19 17
20 20 19 19 24 28 39 54 74 93 100 97 86 79 72 64 64 69 69 64 65 64 61 56 52 49 52 45 18 14 16 16 14 12 12 15 20 20 22 21 19 18 19
22 16 15 16 17 20 23 35 40 44 57 79 78 68 68 69 65 63 62 61 64 64 64 63 59 58 40 20 15 17 18 15 13 16 16 18 18 21 20 18 18 19 18
20 19 18 19 20 22 31 27 33 50 56 54 57 63 69 66 64 62 62 62 62 60 63 59 52 31 21 17 19 20 17 16 20 18 17 19 23 22 20 18 18 18 18
35 39 39 30 30 34 40 55 55 55 57 68 68 68 67 67 70 63 48 46 47 40 40 35 27 20 20 21 23 19 20 21 20 17 18 24 25 23 20 20 19 19 21
74 71 60 57 61 58 61 74 72 72 75 75 86 86 78 78 75 56 51 48 50 35 28 24 32 24 28 32 25 29 23 22 20 21 25 28 29 27 24 23 23 24 24
64 72 69 69 74 84 90 90 88 91 94 89 85 89 86 84 88 83 77 68 65 63 33 33 31 28 32 44 34 28 22 22 23 26 28 34 35 34 31 29 28 29 29
70 64 72 71 81 94 98 96 96 90 88 90 92 93 87 83 88 93 84 90 90 93 75 59 48 63 45 36 31 27 25 25 27 32 36 37 41 42 43 41 36 35 38
60 73 70 74 81 86 90 92 95 100 99 94 92 99 99 98 98 97 96 97 96 98 97 94 69 47 36 34 29 33 32 29 33 38 38 43 49 48 48 53 56 61 66
57 72 70 77 76 89 93 93 96 94 85 92 91 99 100 98 98 99 91 87 75 65 62 57 51 44 38 34 38 41 40 39 40 44 49 50 48 46 46 46 48 51 59
61 71 68 70 73 86 97 93 86 87 88 96 100 100 99 100 100 100 100 88 76 71 65 59 52 47 44 45 49 52 55 53 48 47 53 56 51 52 48 44 44 44 45
64 60 51 59 79 75 77 100 99 96 100 100 100 100 100 100 99 100 100 99 99 98 82 69 63 56 53 55 59 61 60 65 68 60 50 50 56 54 53 53 55 55 54
55 53 54 58 61 63 68 76 90 99 100 100 100 100 100 100 100 99 99 99 100 99 91 76 67 64 66 67 63 62 64 72 77 77 61 50 55 69 71 71 73 73 72
79 62 58 74 88 100 99 85 89 100 100 100 99 100 100 100 100 100 100 100 100 99 96 85 80 80 74 67 63 68 72 77 83 82 73 56 56 75 83 85 89 87 85
100 100 100 100 100 100 100 100 100 100 97 99 100 100 100 100 100 100 100 100 100 93 90 88 85 88 85 83 80 85 88 87 90 86 82 66 63 73 82 85 85 80 81